[[{"header":{"parameterUnit":"m.s-1","parameterCategory":1,"la1":30.2991,"la2":30.254,"lo1":-89.0895,"lo2":-89.0444,"dy":0.0017,"dx":0.0017,"nx":28,"ny":28,"refTime":"2024-06-28T09:00:00:Z","depth":0,"parameterNumber":2,"parameterNumberName":"U-component_of_WINDS"},"data":[0,0,0,0,0,0,0,0,0,0,0,0,0,0,0,0,0,0,0,0,0,0,0,0,0,0,0,0,0,0,0,0,0,0,0,0,0,0,0,0,0,0,0,0,0,0,0,0,0,0,0,0,0,0,0,0,0,0,0.8886,0.8887,0,0.8959,0.896,0.8961,0.9001,0.9001,0.9001,0.9001,0.9074,0.9075,0.9077,0,0,0,0,0,0,0,0,0,0,0,0,0,0.8778,0.878,0.8886,0.8887,0.8888,0.8959,0.896,0.8961,0.9001,0.9001,0.9001,0.9001,0.9073,0.9075,0.9077,0,0,0,0,0,0,0,0,0,0,0,0,0,0.8835,0.878,0.8886,0.8916,0.892,0.8959,0.896,0.8961,0.9001,0.9001,0.9001,0.9001,0.9072,0.9075,0.9078,0.9092,0,0,0.9086,0.9087,0,0,0,0,0,0,0,0,0.8832,0.8839,0.8911,0.8914,0.8918,0.8971,0.8949,0.9005,0.9,0.897,0.9001,0.9001,0.9039,0.9045,0.9058,0.9095,0.9098,0.9086,0.9088,0.9089,0.909,0,0,0,0,0,0,0,0.8828,0.8836,0.8915,0.8912,0.8916,0.8925,0.8934,0.8959,0.9003,0.8973,0.8976,0.8984,0.9041,0.9055,0.906,0.9099,0.9086,0.9089,0.9091,0.9092,0.9148,0.9148,0,0,0,0,0,0,0.8819,0.8833,0.8913,0.8917,0.8875,0.8927,0.8936,0.8954,0.9003,0.901,0.8984,0.8985,0.905,0.9057,0.9063,0.9081,0.9089,0.9092,0.9093,0.9149,0.9148,0.9148,0,0,0,0,0,0,0.8817,0.8826,0.891,0.8876,0.8887,0.8929,0.8948,0.8955,0.8969,0.9011,0.9019,0.899,0.9051,0.9059,0.9084,0.9084,0.9093,0.9096,0.9149,0.9149,0.9148,0.9118,0,0,0,0,0,0,0.8814,0.8825,0.8832,0.8876,0.8889,0.8931,0.8948,0.8957,0.8974,0.8977,0.9019,0.9026,0.9052,0.9079,0.9086,0.9088,0.9098,0.9149,0.9149,0.9148,0.9119,0.9117,0.9115,0,0,0,0,0,0.881,0.8821,0.8832,0.8841,0.8898,0.8931,0.8938,0.8968,0.8974,0.898,0.9007,0.9025,0.9083,0.9082,0.909,0.9092,0.9149,0.9149,0.9148,0.912,0.9117,0.9115,0,0,0,0,0,0,0.8776,0.8827,0.884,0.8866,0.8893,0.8937,0.8947,0.8964,0.899,0.8992,0.9026,0.9035,0.9057,0.9077,0.9075,0.9107,0.9118,0.9119,0.9093,0.9091,0.9089,0.9084,0.91,0,0,0,0,0,0.8771,0.8794,0.8837,0.8855,0.8869,0.8905,0.892,0.894,0.897,0.8982,0.901,0.9038,0.9062,0.9077,0.9102,0.9122,0.9131,0.9127,0.9125,0.9123,0.9124,0.9134,0.9133,0.9147,0.9147,0.9147,0,0,0.8762,0.8793,0.8805,0.8849,0.8873,0.8895,0.8915,0.8937,0.8953,0.8985,0.9011,0.9032,0.9065,0.9086,0.9097,0.9104,0.9121,0.9123,0.9121,0.9123,0.9133,0.9132,0.9131,0.9147,0.9147,0.9147,0,0,0.8757,0.8783,0.88,0.8823,0.8859,0.8883,0.8886,0.8927,0.8943,0.8968,0.8992,0.9011,0.9052,0.9074,0.9091,0.9091,0.9108,0.9097,0.9086,0.9096,0.9094,0.9094,0.9093,0.9092,0.9098,0.9098,0.9098,0,0.8741,0.8776,0.8807,0.8828,0.8846,0.8875,0.8892,0.8912,0.8954,0.8965,0.8972,0.9023,0.9047,0.9074,0.9073,0.9086,0.909,0.9094,0.9092,0.9092,0.9091,0.9091,0.909,0.9096,0.9097,0.9097,0.9097,0,0.8754,0.8778,0.8787,0.8827,0.8845,0.8864,0.8896,0.8911,0.8929,0.8951,0.8975,0.9005,0.9036,0.9043,0.9061,0.9071,0.9074,0.9086,0.9097,0.9088,0.9088,0.9088,0.9094,0.9095,0.9095,0.9096,0,0,0.8732,0.8786,0.8789,0.8807,0.8847,0.8865,0.8884,0.8914,0.8925,0.8952,0.8968,0.9001,0.9011,0.903,0.905,0.9058,0.9054,0.9069,0.907,0.9065,0.9066,0.9057,0.9057,0.9065,0.9065,0.9065,0.9063,0,0.8732,0.8769,0.8796,0.8822,0.8843,0.8869,0.8885,0.8911,0.8931,0.8951,0.8973,0.8996,0.9009,0.902,0.9029,0.9053,0.9055,0.9053,0.908,0.908,0.9071,0.9057,0.9048,0.9045,0.9064,0.9064,0.9064,0,0.8739,0.8764,0.8792,0.8828,0.8838,0.8852,0.8881,0.89,0.8928,0.8942,0.8961,0.8981,0.9,0.9009,0.9035,0.9033,0.9045,0.9058,0.9058,0.9063,0.9072,0.9061,0.9045,0.9045,0.9064,0.9064,0.9064,0,0.8719,0.876,0.8782,0.8796,0.8839,0.8848,0.8866,0.8894,0.891,0.8934,0.8944,0.897,0.8984,0.9002,0.9028,0.9032,0.9051,0.9062,0.9062,0.9061,0.9066,0.9066,0.9052,0.9073,0.9073,0.9073,0.9073,0,0.8717,0.8733,0.8774,0.8787,0.8805,0.8834,0.885,0.887,0.8895,0.8912,0.8935,0.895,0.8983,0.9001,0.9021,0.9038,0.9045,0.9056,0.9061,0.9054,0.9052,0.9063,0.9064,0.9073,0.9073,0.9073,0.9073,0,0.8699,0.8727,0.8752,0.879,0.8799,0.8811,0.8842,0.8855,0.8876,0.8896,0.8903,0.8935,0.8957,0.8984,0.9015,0.9028,0.9044,0.9052,0.9035,0.9038,0.9037,0.9036,0.903,0.903,0.905,0.905,0.905,0,0.8697,0.8709,0.8748,0.8761,0.8778,0.8799,0.8814,0.8842,0.8857,0.8889,0.8898,0.8922,0.8943,0.8976,0.9002,0.9025,0.9033,0.9029,0.9037,0.9029,0.9033,0.9032,0.9033,0.9028,0.9027,0.9027,0.9027,0,0.8689,0.8701,0.8723,0.8749,0.8767,0.8789,0.8812,0.882,0.8853,0.8868,0.8891,0.8907,0.8938,0.8961,0.8987,0.9004,0.902,0.9024,0.9025,0.9018,0.9008,0.9013,0.9029,0.9024,0.9024,0.9025,0.9025,0.9025,0.8678,0.869,0.8719,0.8742,0.8761,0.8781,0.8795,0.8817,0.8837,0.8865,0.8879,0.8902,0.8927,0.8963,0.8979,0.8996,0.9002,0.9004,0.9005,0.9005,0.9002,0.9004,0.9001,0.9001,0.9001,0.9001,0.9001,0,0.8671,0.869,0.8711,0.8742,0.8759,0.8773,0.8798,0.8811,0.8831,0.8853,0.8873,0.8898,0.892,0.8946,0.8969,0.8977,0.8985,0.8982,0.8982,0.8985,0.8996,0.8992,0.8975,0.8975,0.8975,0.8975,0.8975,0.8975,0.867,0.869,0.8706,0.8735,0.8754,0.8776,0.8789,0.8807,0.8825,0.8852,0.887,0.8887,0.891,0.8935,0.8954,0.8961,0.8969,0.8963,0.8972,0.8982,0.8985,0.8987,0.8984,0.8965,0.8965,0.896,0.896,0.896]},{"header":{"parameterUnit":"m.s-1","parameterCategory":1,"la1":30.2991,"la2":30.254,"lo1":-89.0895,"lo2":-89.0444,"dy":0.0017,"dx":0.0017,"nx":28,"ny":28,"refTime":"2024-06-28T09:00:00:Z","depth":0,"parameterNumber":3,"parameterNumberName":"V-component_of_WINDS"},"data":[0,0,0,0,0,0,0,0,0,0,0,0,0,0,0,0,0,0,0,0,0,0,0,0,0,0,0,0,0,0,0,0,0,0,0,0,0,0,0,0,0,0,0,0,0,0,0,0,0,0,0,0,0,0,0,0,0,0,5.6366,5.6367,0,5.6447,5.6448,5.6449,5.6455,5.6454,5.6453,5.6452,5.6528,5.6531,5.6534,0,0,0,0,0,0,0,0,0,0,0,0,0,5.6209,5.6212,5.6366,5.6367,5.6368,5.6447,5.6448,5.6449,5.6455,5.6454,5.6453,5.6452,5.6528,5.6531,5.6534,0,0,0,0,0,0,0,0,0,0,0,0,0,5.6282,5.6213,5.6366,5.6381,5.6383,5.6447,5.6448,5.645,5.6455,5.6454,5.6453,5.6451,5.6526,5.6531,5.6535,5.6588,0,0,5.6548,5.655,0,0,0,0,0,0,0,0,5.6278,5.6288,5.6377,5.638,5.6382,5.644,5.6421,5.6496,5.6456,5.6427,5.6452,5.6451,5.65,5.6506,5.6524,5.6591,5.6595,5.6548,5.6551,5.6553,5.6554,0,0,0,0,0,0,0,5.6273,5.6284,5.6398,5.6379,5.6382,5.6381,5.639,5.6435,5.647,5.643,5.643,5.644,5.6501,5.652,5.6526,5.6596,5.6548,5.6552,5.6555,5.6556,5.671,5.6711,0,0,0,0,0,0,5.6266,5.628,5.6395,5.64,5.6326,5.6385,5.6395,5.6422,5.6469,5.6475,5.6441,5.644,5.6513,5.6521,5.6528,5.6594,5.6553,5.6557,5.6559,5.6708,5.671,5.6712,0,0,0,0,0,0,5.6263,5.6276,5.6392,5.6341,5.6355,5.6389,5.642,5.6425,5.6444,5.6478,5.6484,5.6455,5.6512,5.6522,5.6573,5.6596,5.6559,5.6563,5.6707,5.6709,5.6711,5.6724,0,0,0,0,0,0,5.6258,5.6275,5.6297,5.6341,5.6358,5.6438,5.6421,5.6427,5.6452,5.6452,5.6493,5.6498,5.6512,5.6567,5.6578,5.6601,5.6566,5.6705,5.6708,5.671,5.6722,5.6726,5.673,0,0,0,0,0,5.6252,5.6296,5.6298,5.6312,5.6387,5.6439,5.6449,5.6466,5.6454,5.6476,5.6497,5.6497,5.6592,5.6572,5.6584,5.661,5.6703,5.6707,5.671,5.672,5.6725,5.673,0,0,0,0,0,0,5.6251,5.6302,5.6305,5.6365,5.6398,5.644,5.6468,5.6472,5.6507,5.6505,5.6523,5.6532,5.6582,5.6601,5.6578,5.6663,5.6646,5.6652,5.6649,5.6655,5.6659,5.6653,5.6569,0,0,0,0,0,5.6258,5.6299,5.634,5.6388,5.6405,5.6434,5.6457,5.6468,5.6502,5.6515,5.6541,5.6572,5.6609,5.6633,5.6669,5.6724,5.6733,5.6748,5.6752,5.6755,5.676,5.679,5.6797,5.6723,5.6723,5.6723,0,0,5.6272,5.6305,5.6329,5.6389,5.6416,5.6456,5.6445,5.6487,5.6516,5.6521,5.6572,5.6591,5.6627,5.6681,5.6705,5.6698,5.6783,5.676,5.6762,5.6765,5.6795,5.6802,5.6808,5.6725,5.6725,5.6725,0,0,5.6319,5.6348,5.6392,5.642,5.6462,5.648,5.6491,5.6533,5.6547,5.6598,5.6602,5.6636,5.6699,5.6725,5.6746,5.6802,5.6802,5.6813,5.6836,5.6865,5.6871,5.6876,5.6896,5.6903,5.6818,5.6818,5.6818,0,5.633,5.6393,5.6413,5.6456,5.6482,5.649,5.6533,5.6558,5.6608,5.6625,5.6616,5.6697,5.6721,5.6781,5.6795,5.6811,5.6823,5.6808,5.6869,5.6874,5.688,5.6898,5.6906,5.6819,5.6819,5.6818,5.6818,0,5.6405,5.6448,5.6477,5.6529,5.6558,5.66,5.6625,5.6651,5.666,5.6678,5.673,5.676,5.6802,5.6817,5.6824,5.6877,5.6871,5.6866,5.6849,5.6887,5.6905,5.6913,5.682,5.682,5.682,5.6819,0,0,5.6452,5.6515,5.6526,5.6549,5.6596,5.6629,5.6671,5.6715,5.6737,5.6771,5.6806,5.6859,5.6855,5.6879,5.6889,5.6915,5.6957,5.6906,5.6907,5.6914,5.7016,5.7021,5.7029,5.6957,5.6959,5.696,5.7013,0,5.6504,5.6582,5.6602,5.6668,5.6707,5.6715,5.6752,5.6783,5.6802,5.6836,5.6856,5.6894,5.6885,5.6899,5.6925,5.6946,5.6978,5.6943,5.6988,5.699,5.698,5.7038,5.7043,5.7092,5.7021,5.7022,5.7023,0,5.6574,5.6613,5.6684,5.6726,5.6743,5.6776,5.6818,5.6851,5.6886,5.6898,5.6925,5.6933,5.6975,5.6957,5.7014,5.699,5.701,5.7023,5.7025,5.703,5.7009,5.7044,5.7108,5.7115,5.7034,5.7033,5.7032,0,5.6602,5.6671,5.6722,5.6742,5.6793,5.6816,5.6837,5.6871,5.6896,5.6932,5.6948,5.6987,5.7008,5.7037,5.7054,5.7039,5.711,5.7093,5.712,5.7119,5.7134,5.7133,5.7202,5.7147,5.7147,5.7147,5.7147,0,5.6657,5.67,5.6736,5.6767,5.6815,5.6836,5.6882,5.6903,5.6933,5.6968,5.6976,5.7007,5.7029,5.7062,5.7076,5.7121,5.7131,5.714,5.7143,5.7139,5.7138,5.7152,5.7149,5.7149,5.7148,5.7148,5.7148,0,5.6695,5.6721,5.6778,5.6822,5.6834,5.6867,5.6903,5.6933,5.6952,5.6996,5.7007,5.7036,5.7076,5.7097,5.7146,5.7155,5.7206,5.7207,5.7195,5.7196,5.7222,5.7219,5.7302,5.7314,5.7251,5.7252,5.7252,0,5.6729,5.6763,5.6811,5.6836,5.6859,5.6898,5.6924,5.6946,5.6972,5.7015,5.704,5.7081,5.7115,5.7179,5.7203,5.7241,5.7242,5.7269,5.7248,5.7243,5.7242,5.724,5.7244,5.7272,5.7273,5.7273,5.7274,0,5.6786,5.6797,5.6836,5.688,5.6911,5.6946,5.698,5.6999,5.7025,5.7054,5.7097,5.7124,5.7176,5.7216,5.7256,5.7275,5.7279,5.728,5.7288,5.7285,5.7277,5.7281,5.7205,5.7278,5.7278,5.7277,5.7277,5.7277,5.6823,5.6853,5.6892,5.6935,5.6963,5.6995,5.7026,5.7049,5.7086,5.7132,5.7141,5.7186,5.722,5.7274,5.7295,5.7329,5.7323,5.7335,5.7338,5.734,5.7342,5.7272,5.7336,5.7336,5.7336,5.7336,5.7336,0,5.688,5.6906,5.6945,5.6994,5.7027,5.703,5.7067,5.7094,5.7135,5.7167,5.7201,5.725,5.7289,5.7317,5.7357,5.7379,5.7381,5.7388,5.7387,5.7391,5.7345,5.7334,5.7386,5.7386,5.7386,5.7386,5.7386,5.7386,5.6913,5.6965,5.6981,5.7046,5.7071,5.7117,5.7139,5.7167,5.7193,5.7248,5.7282,5.7301,5.7331,5.7373,5.7409,5.7415,5.7429,5.7437,5.7443,5.74,5.7394,5.7389,5.7379,5.744,5.744,5.7487,5.7487,5.7488]}]]